KN2B-13 Weather Reports


time (UTC)temp
C
wind
direction
speed
KPH
gust
KPH
rain 1hr
cm
rain 24hr
cm
rain mn
cm
humidity
%
barometer
mb
20260510115959 10 219 1.6 3.2 0.00 0.53 0.00 98 1011.9
20260510114958 10 197 3.2 4.8 0.00 0.53 0.00 98 1011.8
20260510113958 10 179 1.6 4.8 0.00 0.53 0.00 98 1011.6
20260510112958 10 223 1.6 3.2 0.00 0.53 0.00 98 1011.5
20260510111959 10 184 0.0 3.2 0.00 0.53 0.00 98 1011.4
20260510110959 10 133 0.0 0.0 0.00 0.53 0.00 98 1011.4
20260510110000 10 133 0.0 0.0 0.00 0.53 0.00 98 1011.3
20260510104958 10 133 0.0 3.2 0.00 0.56 0.00 98 1011.0
20260510103959 10 342 0.0 3.2 0.00 0.56 0.00 98 1011.1
20260510101958 9 148 0.0 3.2 0.00 0.56 0.00 97 1010.6
20260510094957 9 262 0.0 3.2 0.00 0.56 0.00 97 1010.6
20260510093958 9 220 0.0 3.2 0.00 0.56 0.00 97 1010.5
20260510092957 9 278 1.6 3.2 0.00 0.56 0.00 98 1010.4
20260510091957 9 292 1.6 3.2 0.00 0.56 0.00 97 1010.2
20260510090957 9 310 1.6 3.2 0.00 0.56 0.00 97 1010.4
20260510085957 9 270 3.2 6.4 0.00 0.56 0.00 98 1010.3
20260510084958 9 180 3.2 6.4 0.00 0.56 0.00 97 1010.5
20260510083957 9 234 1.6 4.8 0.00 0.56 0.00 97 1010.7
20260510082957 9 210 0.0 1.6 0.00 0.56 0.00 97 1010.8
20260510081957 9 178 0.0 3.2 0.00 0.56 0.00 97 1011.0
20260510080957 9 153 0.0 0.0 0.00 0.56 0.00 97 1011.0
20260510075957 9 254 0.0 1.6 0.00 0.56 0.00 97 1011.4
20260510074957 9 160 1.6 4.8 0.00 0.56 0.00 97 1011.2
20260510073957 9 143 0.0 1.6 0.00 0.56 0.00 97 1011.3
20260510072957 9 137 0.0 3.2 0.00 0.56 0.00 98 1011.4
20260510071957 9 297 0.0 3.2 0.00 0.56 0.00 98 1011.4
20260510070957 9 128 4.8 9.7 0.00 0.56 0.00 98 1011.3
20260510065957 8 328 0.0 4.8 0.00 0.58 0.00 97 1010.9
20260510064958 8 161 0.0 0.0 0.00 0.58 0.00 98 1010.7
20260510063957 8 161 0.0 0.0 0.00 0.58 0.00 97 1010.8
20260510062957 8 261 0.0 0.0 0.00 0.58 0.00 97 1010.9
20260510061958 7 229 0.0 0.0 0.00 0.58 0.00 97 1010.9
20260510060000 7 147 0.0 0.0 0.00 0.58 0.00 97 1011.0
20260510053959 7 348 0.0 3.2 0.00 0.61 0.00 97 1011.0
20260510052959 6 116 0.0 0.0 0.00 0.61 0.00 97 1010.8
20260510051959 6 116 0.0 0.0 0.00 0.61 0.00 96 1010.5
20260510050958 6 117 0.0 0.0 0.00 0.61 0.00 96 1010.4
20260510050004 6 116 0.0 0.0 0.00 0.61 0.00 96 1010.4
20260510045000 6 116 0.0 0.0 0.00 0.64 0.00 96 1010.6
20260510044000 7 117 0.0 0.0 0.00 0.64 0.00 97 1010.6
20260510043001 6 116 0.0 0.0 0.00 0.64 0.00 96 1010.6
20260510042000 6 117 0.0 0.0 0.00 0.64 0.00 96 1010.6
20260510041000 6 116 0.0 0.0 0.00 0.64 0.00 96 1010.6
20260510040000 6 69 0.0 0.0 0.00 0.64 0.64 96 1010.7
20260510035000 6 11 0.0 0.0 0.00 0.64 0.64 96 1010.6
20260510033959 6 11 0.0 0.0 0.00 0.64 0.64 95 1010.4
20260510031959 6 123 0.0 0.0 0.00 0.64 0.64 95 1010.3
20260510024959 7 123 0.0 0.0 0.00 0.64 0.64 95 1010.3
20260510022000 7 123 0.0 1.6 0.00 0.64 0.64 94 1010.3
20260510020959 8 123 0.0 3.2 0.00 0.64 0.64 94 1010.2
20260510015959 8 350 0.0 0.0 0.00 0.64 0.64 94 1010.2
20260510014959 9 350 0.0 0.0 0.00 0.64 0.64 95 1010.1
20260510014000 9 350 0.0 0.0 0.00 0.64 0.64 95 1010.0
20260510012959 9 309 0.0 0.0 0.00 0.64 0.64 93 1010.1
20260510011959 9 309 0.0 0.0 0.00 0.64 0.64 93 1010.2
20260510010959 10 309 0.0 0.0 0.00 0.64 0.64 93 1010.1
20260510005000 10 309 1.6 3.2 0.00 0.64 0.64 93 1009.8
20260510004000 11 269 0.0 0.0 0.00 0.64 0.64 92 1009.6
20260510002959 11 153 0.0 0.0 0.00 0.64 0.64 91 1009.3
20260510002000 11 153 0.0 1.6 0.00 0.64 0.64 90 1009.3
20260510000002 12 198 3.2 6.4 0.00 0.64 0.64 89 1009.3
20260509235000 12 168 3.2 4.8 0.00 0.64 0.64 88 1009.1
20260509234000 12 219 3.2 6.4 0.00 0.64 0.64 88 1009.1
20260509233001 12 194 4.8 9.7 0.00 0.64 0.64 87 1008.9
20260509232001 13 187 4.8 8.0 0.00 0.64 0.64 87 1008.8
20260509231000 13 193 6.4 11.3 0.00 0.64 0.64 87 1008.9
20260509224959 13 180 4.8 9.7 0.00 0.64 0.64 88 1009.0
20260509223959 13 192 4.8 6.4 0.00 0.64 0.64 88 1009.0
20260509223000 13 205 6.4 11.3 0.00 0.64 0.64 88 1009.0
20260509221959 13 216 4.8 6.4 0.00 0.64 0.64 88 1009.1
20260509220958 13 221 6.4 12.9 0.00 0.64 0.64 89 1009.2
20260509215959 13 174 6.4 11.3 0.00 0.64 0.64 89 1009.1
20260509213959 12 188 4.8 8.0 0.00 0.64 0.64 91 1009.4
20260509212959 12 190 3.2 6.4 0.00 0.64 0.64 92 1009.4
20260509212000 12 173 4.8 8.0 0.00 0.64 0.64 92 1009.4
20260509210959 12 220 4.8 8.0 0.03 0.64 0.64 92 1009.4
20260509205959 12 189 4.8 9.7 0.03 0.64 0.64 91 1009.4
20260509203000 12 202 3.2 6.4 0.10 0.64 0.64 93 1009.5
20260509201959 12 205 3.2 8.0 0.13 0.64 0.64 94 1009.6
20260509201000 11 108 3.2 6.4 0.13 0.61 0.61 94 1009.8
20260509200004 11 201 4.8 8.0 0.15 0.61 0.61 93 1010.2
20260509195000 11 174 4.8 8.0 0.13 0.56 0.56 93 1010.4
20260509194001 11 221 4.8 11.3 0.13 0.56 0.56 93 1010.5
20260509192001 12 207 4.8 9.7 0.10 0.51 0.51 93 1010.6
20260509191000 12 196 4.8 9.7 0.13 0.48 0.48 93 1010.7
20260509184959 12 212 4.8 11.3 0.18 0.43 0.43 92 1010.8
20260509183959 12 235 4.8 11.3 0.20 0.43 0.43 93 1010.9
20260509182959 12 225 3.2 8.0 0.23 0.43 0.43 93 1010.9
20260509182000 12 163 6.4 9.7 0.20 0.41 0.41 93 1011.0
20260509180000 12 194 8.0 14.5 0.13 0.30 0.30 91 1011.2
20260509174958 12 195 8.0 16.1 0.08 0.25 0.25 90 1011.1
20260509174000 12 186 6.4 11.3 0.05 0.23 0.23 90 1010.9
20260509172959 12 239 9.7 16.1 0.03 0.20 0.20 90 1011.0
20260509172000 12 203 9.7 19.3 0.03 0.20 0.20 90 1010.9
20260509171000 12 207 8.0 14.5 0.00 0.18 0.18 89 1010.9
20260509165958 12 190 9.7 20.9 0.00 0.18 0.18 88 1010.9
20260509164959 12 198 9.7 19.3 0.00 0.18 0.18 89 1011.0
20260509163959 12 214 6.4 16.1 0.00 0.18 0.18 91 1010.9
20260509163000 12 212 4.8 9.7 0.03 0.18 0.18 91 1010.7
20260509160959 12 115 0.0 0.0 0.05 0.18 0.18 92 1010.8
20260509155959 12 158 0.0 3.2 0.05 0.18 0.18 92 1011.1
20260509154959 12 284 0.0 4.8 0.08 0.18 0.18 92 1011.2
20260509153959 12 43 0.0 0.0 0.08 0.18 0.18 92 1011.2
20260509151959 12 65 0.0 0.0 0.05 0.15 0.15 91 1011.4
20260509150959 12 5 0.0 1.6 0.03 0.13 0.13 91 1011.5
20260509150002 12 348 1.6 6.4 0.03 0.13 0.13 90 1011.5
20260509144959 12 309 0.0 0.0 0.00 0.10 0.10 89 1011.6
20260509143959 12 276 0.0 0.0 0.00 0.10 0.10 88 1011.5
20260509143000 11 55 0.0 0.0 0.00 0.10 0.10 89 1011.2
20260509141959 11 57 1.6 6.4 0.00 0.10 0.10 90 1011.1
20260509140959 11 53 3.2 8.0 0.00 0.10 0.10 91 1010.9
20260509134959 10 70 1.6 4.8 0.00 0.10 0.10 92 1011.3
20260509134000 10 55 1.6 6.4 0.00 0.10 0.10 93 1011.3
20260509132958 10 61 1.6 4.8 0.00 0.10 0.10 94 1011.4
20260509130959 10 24 1.6 3.2 0.00 0.10 0.10 94 1011.4
20260509125957 10 55 0.0 4.8 0.00 0.10 0.10 94 1011.5
20260509124959 10 53 0.0 3.2 0.00 0.10 0.10 94 1011.7
20260509123959 9 355 1.6 6.4 0.00 0.10 0.10 94 1011.6
20260509122958 9 360 0.0 4.8 0.00 0.10 0.10 95 1011.7
20260509121958 9 40 0.0 3.2 0.00 0.10 0.10 95 1011.7
20260509120957 9 9 0.0 4.8 0.00 0.10 0.10 95 1011.7